STARLINK-33753, 63443

Orbit data source: Space-Track

STARLINK-33753, 63443 is a payload satellite owned by SpaceX/Seattle (US) in LEO that was launched on Fri, 04 Apr 2025 UTC via an FALCON 9 launch vehicle from the Air Force Western Test Range (AFWTR). Payload-class satellites include a variety of spacecraft equipped with specific instruments for various scientific and technological missions. These include communications satellites like Starlink; space stations such as the ISS; scientific satellites like the Hubble; Earth observation satellites from companies like Planet Labs, Umbra, and HawkEye 360; GPS; miniature CubeSats for education and research; and military/defense satellites.

Loading next visibility...
Identifier
63443, 2025-069L
Orbit
LEO
Country
Flag of USUS
Related business
Manufacturer
SpaceX/Seattle
Mission
Operational Commercial Communications
Bus & Motor
STARLINK V2MO, Unknown motor
Mass
575 kg wet, ~530 kg dry
Launch date (UTC)
2025-04-04 (8 months ago)
Launch vehicle
FALCON 9
Launch site
Air Force Western Test Range (AFWTR)
Object type
Payload
Rocket body
Debris
Shape & HBR
Box + 2 Pan, 17.7 m
Radar Cross Section
36.964 m², Large (>1 m²)

Expand to show TLE details & history
Last TLE update: 20 hours ago

TLE from 20 hours ago
0 STARLINK-33753
1 63443U 25069L   25348.76911909  .00007303  00000-0  25848-3 0  9999
2 63443  53.1576 176.8811 0001140  99.6219 260.4910 15.30196438 40391
Epoch: 2025-12-14T18:27Z
TLE epoch observation values (Epoch: 2025-12-14T18:27:31.889Z)
Latitude
-0.00006°
Longitude
176.3209°
Altitude
476.254 km
Speed
7.629 km/s
True Right ascension
11h 47m 31s
True Declination
0° 00' 00"
Sunlit
Object was in daylight at epoch
Visualization orbit readout
Latitude
Unknown
Longitude
Unknown
Altitude
Unknown
Speed
Unknown
Apparent Right ascension
Unknown
Apparent Declination
Unknown
Sunlit
N/A
Visualization observer readout
Local Sidereal Time
13:24:36
Azimuth
Unknown
Elevation
Unknown
Doppler factor
Unknown
Orbital elements
Apogee altitude
476.264 km
Perigee altitude
474.701 km
Semi-major axis
6,853.62 km
Eccentricity
0.00011
Inclination
53.1576°
RAAN
176.8811°
Arg. of periapsis
99.6219°
True anomaly
260.47812°
Mean anomaly
260.491°
Eccentric anomaly
260.48456°
Mean motion
3.82528 °/min
Orbital period
94.11 mins
BSTAR
0.00025848
Loading maneuver chart data...
Computing Atmospheric mass density...
Loading historical data...
Loading historical data...
Loading historical data...
Loading historical data...
Loading historical data...
Loading historical data...
Loading historical data...

Documentation

Showing up to 5 results
|